EW7961 Weather Reports


Display with metric or nautical units.
time (UTC)temp
F
wind
direction
speed
MPH
gust
MPH
rain 1hr
in
rain 24hr
in
rain mn
in
humidity
%
barometer
mb
20260902192523 99 294 1.0 3.0 0.00 0.00 0.00 43 1015.3
20260902191523 99 295 3.0 4.0 0.00 0.00 0.00 42 1015.4
20260902190523 99 290 2.0 3.0 0.00 0.00 0.00 43 1015.6
20260902185604 99 290 2.0 4.0 0.00 0.00 0.00 43 1015.7
20260902184524 98 293 1.0 3.0 0.00 0.00 0.00 42 1015.7
20260902183604 98 289 2.0 3.0 0.00 0.00 0.00 45 1015.8
20260902182524 98 300 2.0 3.0 0.00 0.00 0.00 45 1015.9
20260902181604 98 288 2.0 4.0 0.00 0.00 0.00 45 1015.9
20260902180524 97 290 2.0 4.0 0.00 0.00 0.00 45 1016.1
20260902175524 97 289 2.0 3.0 0.00 0.00 0.00 47 1016.2
20260902174524 96 297 2.0 4.0 0.00 0.00 0.00 47 1016.3
20260902173524 96 287 2.0 4.0 0.00 0.00 0.00 47 1016.5
20260902172525 96 295 2.0 3.0 0.00 0.00 0.00 47 1016.6
20260902171524 96 309 2.0 4.0 0.00 0.00 0.00 47 1016.7
20260902170525 95 282 2.0 3.0 0.00 0.00 0.00 46 1016.9
20260902165605 95 292 2.0 4.0 0.00 0.00 0.00 48 1016.9
20260902164525 94 290 2.0 3.0 0.00 0.00 0.00 48 1017.0
20260902163525 94 291 2.0 3.0 0.00 0.00 0.00 49 1017.1
20260902162525 94 280 2.0 3.0 0.00 0.00 0.00 49 1017.1
20260902161526 93 273 2.0 3.0 0.00 0.00 0.00 49 1017.2
20260902160606 93 281 2.0 4.0 0.00 0.00 0.00 49 1017.3
20260902155525 93 278 2.0 4.0 0.00 0.00 0.00 49 1017.3
20260902154606 92 279 2.0 4.0 0.00 0.00 0.00 51 1017.3
20260902153521 91 280 2.0 5.0 0.00 0.00 0.00 53 1017.2
20260902152526 91 280 2.0 5.0 0.00 0.00 0.00 54 1017.2
20260902151526 90 284 1.0 2.0 0.00 0.00 0.00 56 1017.2
20260902150526 89 285 2.0 4.0 0.00 0.00 0.00 56 1017.2
20260902145526 89 292 2.0 4.0 0.00 0.00 0.00 58 1017.3
20260902144527 88 287 1.0 2.0 0.00 0.00 0.00 59 1017.4
20260902143527 87 276 2.0 3.0 0.00 0.00 0.00 61 1017.3
20260902142527 87 281 1.0 2.0 0.00 0.00 0.00 62 1017.4
20260902141526 86 284 1.0 2.0 0.00 0.00 0.00 64 1017.5
20260902140527 85 270 2.0 3.0 0.00 0.00 0.00 65 1017.5
20260902135527 85 283 2.0 4.0 0.00 0.00 0.00 65 1017.6
20260902134542 84 277 2.0 3.0 0.00 0.00 0.00 66 1017.7
20260902133622 84 277 2.0 2.0 0.00 0.00 0.00 68 1017.7
20260902132555 83 269 1.0 3.0 0.00 0.00 0.00 69 1017.8
20260902131527 83 277 2.0 2.0 0.00 0.00 0.00 70 1017.8
20260902130527 83 273 2.0 3.0 0.00 0.00 0.00 70 1017.7
20260902125528 83 274 2.0 2.0 0.00 0.00 0.00 71 1017.7
20260902124528 82 281 2.0 2.0 0.00 0.00 0.00 72 1017.7
20260902123543 81 270 2.0 2.0 0.00 0.00 0.00 74 1017.6
20260902122703 81 271 2.0 2.0 0.00 0.00 0.00 75 1017.5
20260902121528 80 272 2.0 2.0 0.00 0.00 0.00 75 1017.5
20260902120528 80 277 1.0 2.0 0.00 0.00 0.00 75 1017.4
20260902115609 80 282 1.0 2.0 0.00 0.00 0.00 75 1017.3
20260902114529 80 277 1.0 2.0 0.00 0.00 0.00 75 1017.2
20260902113529 80 273 1.0 2.0 0.00 0.00 0.00 75 1017.2
20260902112529 81 280 1.0 2.0 0.00 0.00 0.00 74 1017.1
20260902111559 81 297 1.0 2.0 0.00 0.00 0.00 74 1017.1
20260902110544 81 276 1.0 1.0 0.00 0.00 0.00 73 1017.0
20260902105649 81 282 1.0 2.0 0.00 0.00 0.00 73 1017.0
20260902104529 81 282 1.0 2.0 0.00 0.00 0.00 73 1016.9
20260902103530 81 277 1.0 2.0 0.00 0.00 0.00 72 1016.9
20260902102529 82 271 2.0 2.0 0.00 0.00 0.00 72 1016.9
20260902101530 82 277 1.0 2.0 0.00 0.00 0.00 72 1016.8
20260902100530 82 276 1.0 2.0 0.00 0.00 0.00 71 1016.7
20260902095545 82 269 1.0 3.0 0.00 0.00 0.00 71 1016.7
20260902094530 82 294 1.0 2.0 0.00 0.00 0.00 71 1016.6
20260902093545 82 286 1.0 2.0 0.00 0.00 0.00 71 1016.6
20260902092530 82 276 1.0 2.0 0.00 0.00 0.00 71 1016.5
20260902091531 82 277 2.0 2.0 0.00 0.00 0.00 71 1016.5
20260902090531 82 273 1.0 2.0 0.00 0.00 0.00 70 1016.4
20260902085545 82 273 2.0 3.0 0.00 0.00 0.00 70 1016.4
20260902084531 83 273 2.0 2.0 0.00 0.00 0.00 70 1016.3
20260902083611 83 278 1.0 2.0 0.00 0.00 0.00 70 1016.3
20260902082546 83 281 1.0 2.0 0.00 0.00 0.00 70 1016.3
20260902081531 83 283 1.0 2.0 0.00 0.00 0.00 69 1016.2
20260902080516 83 286 1.0 2.0 0.00 0.00 0.00 69 1016.3
20260902075637 84 287 1.0 2.0 0.00 0.00 0.00 69 1016.3
20260902074517 84 284 1.0 2.0 0.00 0.00 0.00 69 1016.4
20260902073520 84 282 1.0 2.0 0.00 0.00 0.00 68 1016.3
20260902072520 84 283 1.0 2.0 0.00 0.00 0.00 68 1016.4
20260902071523 84 286 1.0 3.0 0.00 0.00 0.00 68 1016.4
20260902070520 84 289 1.0 2.0 0.00 0.00 0.00 67 1016.4
20260902065520 84 283 1.0 2.0 0.00 0.00 0.00 67 1016.4
20260902064518 84 284 1.0 3.0 0.00 0.00 0.00 67 1016.4
20260902063603 84 283 1.0 2.0 0.00 0.00 0.00 67 1016.5
20260902062521 84 288 2.0 3.0 0.00 0.00 0.00 68 1016.4
20260902061558 84 286 1.0 3.0 0.00 0.00 0.00 68 1016.5
20260902060518 84 275 1.0 3.0 0.00 0.00 0.00 68 1016.4
20260902055558 84 283 1.0 2.0 0.00 0.00 0.00 68 1016.3
20260902054518 84 291 1.0 2.0 0.00 0.00 0.00 67 1016.4
20260902053518 84 287 1.0 3.0 0.00 0.00 0.00 67 1016.4
20260902052639 85 291 1.0 2.0 0.00 0.00 0.00 66 1016.4
20260902051519 85 297 1.0 2.0 0.00 0.00 0.00 66 1016.4
20260902050519 85 294 1.0 2.0 0.00 0.00 0.00 65 1016.3
20260902045521 85 299 1.0 2.0 0.00 0.00 0.00 65 1016.2
20260902044519 86 288 1.0 2.0 0.00 0.00 0.00 64 1016.2
20260902043602 86 291 1.0 2.0 0.00 0.00 0.00 63 1016.2
20260902042519 86 298 1.0 2.0 0.00 0.00 0.00 63 1016.2
20260902041519 86 296 1.0 2.0 0.00 0.00 0.00 62 1016.1
20260902040519 86 287 1.0 2.0 0.00 0.00 0.00 62 1016.1
20260902034557 87 288 1.0 3.0 0.00 0.00 0.00 61 1016.2
20260902033520 87 299 0.0 2.0 0.00 0.00 0.00 61 1016.2
20260902032600 87 291 1.0 4.0 0.00 0.00 0.00 60 1016.2
20260902031520 87 298 1.0 3.0 0.00 0.00 0.00 60 1016.2
20260902025517 88 296 1.0 3.0 0.00 0.00 0.00 59 1016.1
20260902024521 88 295 1.0 2.0 0.00 0.00 0.00 58 1016.0
20260902023641 88 298 1.0 3.0 0.00 0.00 0.00 57 1015.9
20260902022520 89 288 1.0 4.0 0.00 0.00 0.00 56 1015.8
20260902021518 89 285 1.0 3.0 0.00 0.00 0.00 56 1015.6
20260902020518 90 295 1.0 4.0 0.00 0.00 0.00 55 1015.5
20260902015518 90 295 1.0 4.0 0.00 0.00 0.00 54 1015.4
20260902014518 90 294 1.0 3.0 0.00 0.00 0.00 53 1015.3
20260902013521 91 291 1.0 5.0 0.00 0.00 0.00 53 1015.2
20260902012519 91 299 1.0 3.0 0.00 0.00 0.00 52 1015.2
20260902011519 91 275 0.0 2.0 0.00 0.00 0.00 52 1015.1
20260902010518 92 288 0.0 3.0 0.00 0.00 0.00 51 1015.0
20260902005602 92 292 0.0 2.0 0.00 0.00 0.00 50 1014.9
20260902004519 93 285 0.0 2.0 0.00 0.00 0.00 49 1014.9
20260902003519 93 239 0.0 2.0 0.00 0.00 0.00 48 1014.9
20260902002519 94 294 1.0 2.0 0.00 0.00 0.00 47 1014.9
20260902001519 94 288 0.0 2.0 0.00 0.00 0.00 47 1014.9
20260902000519 95 298 1.0 2.0 0.00 0.00 0.00 46 1014.9
20260901235522 95 291 1.0 3.0 0.00 0.00 0.00 46 1014.9
20260901234557 0 299 1.0 2.0 0.00 0.00 0.00
20260901233520 96 304 1.0 3.0 0.00 0.00 0.00 45 1015.0
20260901232520 97 287 1.0 4.0 0.00 0.00 0.00 43 1015.0
20260901231523 98 293 1.0 4.0 0.00 0.00 0.00 42 1015.0
20260901230517 98 295 1.0 4.0 0.00 0.00 0.00 41 1015.0
20260901225517 99 298 1.0 3.0 0.00 0.00 0.00 41 1014.9
20260901224517 99 282 1.0 2.0 0.00 0.00 0.00 40 1014.9
20260901223520 100 271 1.0 3.0 0.00 0.00 0.00 39 1014.9
20260901222522 102 290 1.0 3.0 0.00 0.00 0.00 38 1014.9
20260901221517 104 295 2.0 6.0 0.00 0.00 0.00 36 1014.8
20260901220517 105 291 1.0 2.0 0.00 0.00 0.00 35 1014.8
20260901215518 104 290 1.0 2.0 0.00 0.00 0.00 36 1014.8
20260901214521 103 302 1.0 2.0 0.00 0.00 0.00 36 1014.7
20260901212558 103 299 1.0 4.0 0.00 0.00 0.00 35 1014.8
20260901211518 102 289 2.0 3.0 0.00 0.00 0.00 37 1014.9
20260901210518 101 296 1.0 4.0 0.00 0.00 0.00 37 1015.0
20260901205518 101 294 1.0 2.0 0.00 0.00 0.00 37 1015.2
20260901204539 101 278 0.0 2.0 0.00 0.00 0.00 37 1015.3
20260901203525 101 255 1.0 2.0 0.00 0.00 0.00 36 1015.4
20260901202525 101 301 1.0 4.0 0.00 0.00 0.00 36 1015.5
20260901201524 101 299 1.0 3.0 0.00 0.00 0.00 36 1015.5
20260901200524 100 309 1.0 2.0 0.00 0.00 0.00 36 1015.6
20260901195605 100 302 1.0 3.0 0.00 0.00 0.00 37 1015.7
20260901194620 100 292 1.0 3.0 0.00 0.00 0.00 37 1015.8
20260901193605 100 295 2.0 3.0 0.00 0.00 0.00 36 1015.9